EW8203 Weather Reports


Display with metric or nautical units.
time (UTC)temp
F
wind
direction
speed
MPH
gust
MPH
rain 1hr
in
rain 24hr
in
rain mn
in
humidity
%
barometer
mb
20260905050058 86 252 0.0 3.0 0.00 0.00 0.00 64 1012.5
20260905044556 86 233 0.0 4.0 0.00 0.00 0.00 64 1012.4
20260905043057 86 205 1.0 3.0 0.00 0.00 0.00 63 1012.4
20260905041602 86 230 1.0 4.0 0.00 0.00 0.00 62 1012.3
20260905040057 87 213 1.0 3.0 0.00 0.00 0.00 61 1012.4
20260905034607 87 205 1.0 4.0 0.00 0.00 0.00 61 1012.4
20260905033059 86 229 1.0 3.0 0.00 0.00 0.00 61 1012.6
20260905031555 87 213 1.0 4.0 0.00 0.00 0.00 61 1012.8
20260905030054 87 196 1.0 3.0 0.00 0.00 0.00 60 1012.6
20260905024600 88 221 2.0 6.0 0.00 0.00 0.00 59 1012.6
20260905023054 88 194 2.0 4.0 0.00 0.00 0.00 60 1012.4
20260905021557 88 193 1.0 5.0 0.00 0.00 0.00 61 1012.2
20260905020053 89 223 1.0 5.0 0.00 0.00 0.00 60 1012.1
20260905014552 90 200 2.0 5.0 0.00 0.00 0.00 58 1011.9
20260905013051 90 214 1.0 5.0 0.00 0.00 0.00 56 1011.9
20260905011551 91 144 2.0 4.0 0.00 0.00 0.00 55 1011.8
20260905010051 92 138 2.0 5.0 0.00 0.00 0.00 54 1011.7
20260905004551 92 122 1.0 5.0 0.00 0.00 0.00 52 1011.8
20260905003050 93 137 1.0 3.0 0.00 0.00 0.00 51 1011.6
20260905001600 94 152 1.0 3.0 0.00 0.00 0.00 51 1011.7
20260905000106 94 157 1.0 3.0 0.00 0.00 0.00 50 1011.6
20260904234548 95 146 2.0 5.0 0.00 0.00 0.00 48 1011.3
20260904233114 96 184 2.0 4.0 0.00 0.00 0.00 47 1011.4
20260904231555 97 150 3.0 6.0 0.00 0.00 0.00 45 1011.3
20260904230048 98 188 2.0 4.0 0.00 0.00 0.00 43 1011.4
20260904224555 98 196 0.0 4.0 0.00 0.00 0.00 44 1011.4
20260904223057 98 130 0.0 4.0 0.00 0.00 0.00 44 1011.5
20260904221543 98 153 2.0 6.0 0.00 0.00 0.00 44 1011.5
20260904220042 98 159 2.0 7.0 0.00 0.00 0.00 43 1011.7
20260904214540 99 132 2.0 6.0 0.00 0.00 0.00 42 1011.8
20260904213042 99 240 0.0 6.0 0.00 0.00 0.00 43 1012.0
20260904211540 100 204 0.0 4.0 0.00 0.00 0.00 41 1012.1
20260904210045 100 40 0.0 3.0 0.00 0.00 0.00 41 1012.2
20260904204535 99 174 1.0 5.0 0.00 0.00 0.00 42 1012.4
20260904203038 101 113 0.0 5.0 0.00 0.00 0.00 40 1012.5
20260904201532 102 135 0.0 3.0 0.00 0.00 0.00 39 1012.7
20260904200031 103 179 0.0 0.0 0.00 0.00 0.00 40 1012.9
20260904194528 102 157 0.0 0.0 0.00 0.00 0.00 40 1013.2
20260904193027 102 69 0.0 0.0 0.00 0.00 0.00 41 1013.4
20260904191525 102 67 0.0 0.0 0.00 0.00 0.00 41 1013.6
20260904190031 101 333 0.0 3.0 0.00 0.00 0.00 42 1013.6
20260904184520 100 114 0.0 3.0 0.00 0.00 0.00 43 1013.6
20260904183025 101 34 0.0 3.0 0.00 0.00 0.00 42 1013.9
20260904181528 100 327 0.0 4.0 0.00 0.00 0.00 43 1014.0
20260904180014 101 101 0.0 4.0 0.00 0.00 0.00 43 1014.1
20260904174513 100 42 3.0 10.0 0.00 0.00 0.00 44 1014.3
20260904173028 99 83 0.0 4.0 0.00 0.00 0.00 47 1014.6
20260904171509 98 329 3.0 9.0 0.00 0.00 0.00 48 1014.7
20260904170101 97 55 1.0 11.0 0.00 0.00 0.00 50 1014.9
20260904164557 97 355 1.0 11.0 0.00 0.00 0.00 50 1014.8
20260904163054 95 248 2.0 7.0 0.00 0.00 0.00 53 1015.0
20260904161559 94 262 3.0 11.0 0.00 0.00 0.00 54 1015.1
20260904160059 95 274 1.0 6.0 0.00 0.00 0.00 53 1015.0
20260904154545 94 209 2.0 6.0 0.00 0.00 0.00 56 1015.2
20260904153042 92 276 3.0 10.0 0.00 0.00 0.00 58 1015.2
20260904151543 92 190 0.0 3.0 0.00 0.00 0.00 59 1015.2
20260904150037 91 309 1.0 8.0 0.00 0.00 0.00 60 1015.0
20260904144534 90 179 3.0 10.0 0.00 0.00 0.00 61 1014.9
20260904143046 89 309 2.0 8.0 0.00 0.00 0.00 62 1014.8
20260904141525 87 266 2.0 9.0 0.00 0.00 0.00 64 1014.6
20260904140023 86 294 2.0 10.0 0.00 0.00 0.00 65 1014.7
20260904134520 85 286 3.0 9.0 0.00 0.00 0.00 67 1014.6
20260904133020 84 256 2.0 7.0 0.00 0.00 0.00 69 1014.6
20260904131519 83 344 1.0 8.0 0.00 0.00 0.00 71 1014.7
20260904130016 82 256 2.0 7.0 0.00 0.00 0.00 72 1014.6
20260904124516 81 225 1.0 6.0 0.00 0.00 0.00 72 1014.4
20260904123015 80 254 1.0 4.0 0.00 0.00 0.00 73 1014.5
20260904121513 80 207 1.0 3.0 0.00 0.00 0.00 74 1014.3
20260904120013 80 237 0.0 3.0 0.00 0.00 0.00 74 1014.3
20260904114515 78 267 0.0 4.0 0.00 0.00 0.00 76 1014.2
20260904113012 78 313 1.0 2.0 0.00 0.00 0.00 76 1014.1
20260904111506 79 316 0.0 2.0 0.00 0.00 0.00 74 1014.0
20260904110106 80 306 1.0 5.0 0.00 0.00 0.00 73 1013.7
20260904104503 80 232 1.0 5.0 0.00 0.00 0.00 73 1013.6
20260904103003 80 202 0.0 4.0 0.00 0.00 0.00 73 1013.4
20260904101502 81 245 1.0 4.0 0.00 0.00 0.00 72 1013.4
20260904100002 81 238 1.0 4.0 0.00 0.00 0.00 72 1013.4
20260904094600 81 200 1.0 4.0 0.00 0.00 0.00 72 1013.3
20260904093105 81 229 1.0 3.0 0.00 0.00 0.00 72 1013.2
20260904091600 80 226 0.0 2.0 0.00 0.00 0.00 73 1013.2
20260904090057 80 202 1.0 3.0 0.00 0.00 0.00 73 1013.2
20260904084602 81 223 1.0 3.0 0.00 0.00 0.00 72 1013.1
20260904083056 81 194 2.0 4.0 0.00 0.00 0.00 72 1013.0
20260904081553 81 199 2.0 5.0 0.00 0.00 0.00 71 1012.9
20260904080052 81 214 1.0 4.0 0.00 0.00 0.00 71 1012.8
20260904074602 82 230 1.0 4.0 0.00 0.00 0.00 71 1012.7
20260904073051 82 225 1.0 4.0 0.00 0.00 0.00 71 1012.7
20260904071618 82 202 1.0 4.0 0.00 0.00 0.00 72 1012.8
20260904070104 81 213 1.0 4.0 0.00 0.00 0.00 73 1012.7
20260904064603 82 200 2.0 4.0 0.00 0.00 0.00 72 1012.8
20260904063051 82 204 2.0 5.0 0.00 0.00 0.00 71 1012.8
20260904061543 83 165 2.0 6.0 0.00 0.00 0.00 70 1012.8
20260904060041 83 185 2.0 5.0 0.00 0.00 0.00 70 1012.8
20260904054539 83 96 2.0 6.0 0.00 0.00 0.00 70 1013.0
20260904053042 84 192 2.0 5.0 0.00 0.00 0.00 70 1012.9
20260904051535 84 206 1.0 5.0 0.00 0.00 0.00 69 1013.0